Vertical_Velocity
2 -2 0 -2 -4 -3 1 12 3 1 -1 10 4 -2 -2 7 -10 7 3 -1 -4 0 -1 -1 -1 -2 -1 0 1 1 -2 -1 -2 1 0 1 1 5 5 -12 1 13 -1 -2
-3 -1 -0 -3 12 -7 -5 -5 -2 -4 -4 40 46 -6 8 5 6 -5 -4 2 3 2 -0 -1 -2 -1 1 -1 -1 -0 -3 -0 -1 -2 -2 -1 -1 1 7 2 -5 -6 5 -1
-1 3 7 -4 -3 2 -0 1 -9 -7 -2 22 42 -11 -16 8 -0 -6 -0 2 1 -3 -2 -3 -3 0 1 -2 -0 -2 -0 -0 0 0 1 -1 3 1 2 -4 -0 -3 -2 -1
-1 3 -2 -1 1 4 -6 5 -5 -9 -7 -10 18 68 -37 7 -2 2 2 -4 1 0 -1 -0 -0 1 2 -0 -0 1 1 0 -1 -0 0 1 -0 2 2 4 2 -0 -3 -0
5 -0 1 -1 1 -2 -2 3 -3 -0 -2 2 -9 1 -12 -22 12 5 5 3 6 -0 -1 -2 -1 1 2 -1 0 0 -1 -0 -0 -1 -0 -0 2 -0 0 -3 -1 -1 -2 -1
1 -5 1 -0 -2 -2 1 -1 -2 0 -3 -8 4 96 -6 -5 -9 7 6 4 -2 -1 -2 -1 1 -2 -0 -0 1 -0 0 -0 -1 1 2 1 0 1 -0 -0 1 -0 -1 -0
-1 2 -6 -1 -0 -1 -1 -0 -2 -5 4 11 13 5 6 5 2 -0 -2 -2 -2 -2 -1 0 -1 -1 1 -0 -0 -1 0 -0 0 -0 2 -1 -2 -1 0 0 1 1 1 -1
8 22 -1 -7 -1 1 -2 -1 -3 -0 2 56 -18 -18 11 -4 2 -0 -2 1 0 -0 -1 0 0 0 1 0 -0 -0 0 1 0 1 -1 -1 -0 -0 -0 1 -0 -1 0 -1
-2 0 -0 -4 0 0 3 -1 -0 -5 -2 -8 -1 1 5 -11 -2 -0 1 1 2 0 -0 1 0 0 -1 -0 0 -0 -1 -1 -0 1 -1 -0 0 -1 1 0 -0 -1 -0 -1
-2 -0 -1 -7 -2 -3 2 -1 2 -1 -1 5 12 4 -3 4 4 7 2 -0 0 0 -1 -0 0 -1 -1 -0 -0 -1 -2 -1 0 -1 -0 -0 -1 0 0 -0 -0 -1 -1 0
-1 4 -5 -2 -2 -3 -4 5 -3 -8 2 2 23 -8 -0 -1 -3 -1 -1 1 -0 -1 0 0 1 0 -2 -2 -0 -0 -2 0 -1 0 0 -1 1 -0 -1 -0 -1 -1 -1 -0
1 1 2 -4 6 -3 4 -6 -0 -1 -3 1 6 -21 -2 1 -0 1 -1 -2 -2 -1 1 0 1 -1 0 -1 -1 0 -1 1 1 -1 -0 -1 -1 -1 1 0 -1 -1 0 -0
2 -0 -1 8 -5 -3 -4 0 -2 -3 -0 1 -0 -11 7 1 -1 0 -1 -0 1 -1 -2 -2 1 -2 0 0 -1 -2 0 -1 -0 -1 -1 -1 -1 1 1 0 -0 -0 0 -2
0 1 -1 -3 1 1 -3 0 0 1 0 3 -8 -1 6 0 0 -0 0 2 -1 -1 -3 -3 1 5 1 3 2 -2 -3 -2 -1 -1 -0 -0 1 1 1 0 0 -0 -2 -1
1 -0 -0 -2 0 0 -3 -3 -0 0 1 2 -3 -2 -1 -2 -2 -0 0 -1 -2 -1 -1 -0 -1 -2 -1 -2 -2 -3 -3 -1 -0 -0 -0 1 1 1 -0 -1 -0 -0 -0 -0
-0 0 0 -0 -0 -1 1 -1 -2 -1 0 2 -3 8 -1 -1 0 2 -2 -2 1 -0 -2 -2 -5 -2 -2 -3 -3 -2 -2 -1 -0 0 0 1 1 -0 -1 -0 0 1 1 -1
-1 0 0 -3 -2 -2 -1 0 -1 0 -0 -0 -3 -2 -5 1 -1 -8 1 1 -2 -1 -1 -3 -0 -1 -1 -2 -2 -2 -2 -1 1 -0 0 -0 -1 -1 -0 1 -0 1 1 -0
1 -1 1 -7 0 -2 3 -0 -1 0 0 -0 1 0 0 -1 -3 0 -4 -1 -1 -0 -4 -2 -0 -2 -2 -1 -0 1 -1 0 0 -0 -1 -2 -1 -1 -0 0 -0 1 0 -1
0 0 -1 -2 -1 0 -2 -1 0 -1 2 -1 -0 -1 -2 3 6 -11 -0 -3 -4 -3 -1 -1 -1 -2 -1 -1 -1 -2 -1 -1 -0 -1 -2 -2 -1 0 0 -0 1 1 1 0
-0 0 -1 -2 -0 -3 1 -0 -1 -1 1 -0 -2 -1 -3 -9 -5 3 1 1 1 -0 -1 -1 -2 -2 -2 0 -2 -1 -0 -1 -1 -2 -3 -1 0 -0 -1 0 1 -2 -2 -1
1 -0 -0 0 -1 -2 1 -2 -2 -2 -4 -2 -3 -2 -1 -2 -3 -3 -2 -0 -1 -1 -1 -1 -1 -1 -1 -1 -1 -1 -1 -1 -2 -3 -3 -0 -2 -2 -0 -1 0 -0 -0 -2
1 -1 -2 -2 -2 -4 -2 -2 -3 -2 -2 -1 -0 0 -0 1 1 -0 -1 -1 -1 -1 0 0 2 0 -1 -2 -3 -3 -2 -1 -1 -3 -2 -4 -3 -0 -1 -1 -1 -0 -1 -1
-1 -8 -4 -0 0 -3 1 -0 -0 -0 0 -0 -0 1 1 -0 0 1 0 0 -2 -2 -2 -2 -1 -1 -1 -3 -4 -3 -2 -1 -1 -2 -5 2 -1 -2 1 0 -0 -1 -1 0
3 -4 -0 -3 -0 1 0 -0 0 1 0 -0 1 0 -0 0 0 -0 2 0 -0 -1 -2 -2 -2 -1 -1 -2 -2 -3 -2 -2 -1 1 -1 -2 -1 -0 -3 0 0 1 1 2
0 2 1 1 -2 -2 2 0 0 1 1 0 0 0 -1 -0 -0 -1 -0 -2 -2 -3 -3 -2 -2 -1 -2 -3 -3 -3 -1 -1 -1 -2 -2 -2 -2 -1 1 0 -2 -2 -3 -3
-2 -2 -1 1 -2 2 -1 -0 -0 1 1 1 1 -0 -1 0 -0 -0 -1 -2 -2 -2 -3 -2 -1 -1 -2 -2 -3 -3 -2 -1 -3 -3 -2 -1 -1 -1 -1 -1 -2 -2 -3 -1
Height
5842 5844 5846 5847 5851 5855 5857 5859 5860 5857 5857 5853 5850 5844 5843 5846 5836 5836 5835 5833 5831 5825 5819 5814 5809 5804 5798 5792 5785 5777 5769 5762 5755 5748 5740 5730 5722 5713 5703 5694 5687 5680 5669 5659
5839 5841 5843 5846 5851 5848 5849 5852 5854 5856 5859 5858 5850 5842 5842 5840 5833 5831 5832 5829 5825 5820 5814 5810 5804 5799 5792 5784 5777 5770 5763 5755 5747 5738 5729 5720 5711 5702 5693 5684 5675 5666 5658 5647
5837 5841 5843 5842 5843 5845 5846 5848 5850 5851 5853 5853 5851 5839 5838 5833 5831 5828 5827 5825 5821 5815 5810 5805 5799 5793 5785 5777 5771 5763 5756 5748 5739 5729 5720 5710 5701 5691 5682 5672 5662 5653 5645 5636
5834 5837 5838 5838 5840 5841 5842 5845 5845 5844 5846 5847 5851 5841 5828 5825 5824 5824 5822 5819 5815 5810 5805 5799 5793 5786 5779 5772 5764 5757 5749 5740 5730 5721 5711 5701 5691 5682 5673 5663 5653 5643 5634 5625
5832 5833 5834 5834 5836 5836 5837 5838 5838 5839 5839 5840 5842 5831 5828 5821 5823 5823 5819 5814 5811 5806 5800 5793 5786 5780 5773 5766 5759 5751 5742 5732 5723 5713 5703 5693 5683 5672 5662 5652 5642 5632 5622 5612
5828 5829 5830 5831 5831 5831 5833 5833 5833 5834 5835 5834 5835 5835 5821 5819 5820 5820 5816 5813 5807 5802 5795 5788 5781 5775 5768 5761 5753 5744 5735 5725 5715 5705 5694 5684 5674 5664 5653 5643 5632 5621 5611 5600
5826 5827 5826 5827 5828 5828 5828 5829 5829 5831 5831 5831 5829 5823 5820 5819 5817 5817 5813 5809 5804 5797 5789 5783 5777 5770 5763 5755 5746 5737 5727 5717 5707 5696 5686 5676 5666 5655 5644 5633 5622 5611 5600 5589
5828 5827 5823 5821 5825 5826 5825 5827 5828 5828 5829 5829 5819 5816 5819 5817 5814 5812 5808 5804 5798 5791 5785 5778 5772 5764 5756 5748 5739 5729 5719 5709 5698 5688 5678 5668 5657 5645 5634 5623 5612 5601 5590 5580
5824 5825 5821 5820 5821 5824 5824 5824 5825 5824 5825 5826 5818 5814 5811 5813 5811 5808 5804 5799 5793 5786 5780 5773 5766 5758 5750 5741 5732 5721 5711 5701 5690 5680 5669 5659 5647 5636 5625 5614 5603 5592 5581 5570
5818 5819 5817 5816 5818 5819 5820 5821 5822 5820 5819 5819 5808 5808 5808 5807 5806 5804 5799 5793 5787 5781 5774 5768 5761 5752 5744 5734 5725 5714 5704 5693 5682 5672 5661 5649 5639 5628 5617 5606 5594 5583 5572 5561
5815 5817 5815 5815 5816 5816 5816 5814 5816 5817 5818 5818 5818 5807 5806 5804 5801 5798 5793 5788 5783 5776 5770 5762 5755 5746 5738 5728 5717 5707 5696 5685 5674 5664 5653 5641 5631 5620 5609 5597 5586 5575 5564 5552
5812 5813 5815 5813 5814 5814 5814 5813 5814 5814 5814 5812 5811 5805 5804 5801 5797 5794 5789 5784 5778 5772 5765 5757 5750 5741 5731 5720 5710 5700 5688 5677 5666 5656 5645 5634 5624 5612 5600 5588 5577 5566 5555 5545
5809 5809 5811 5811 5809 5809 5810 5811 5811 5810 5809 5808 5806 5803 5802 5798 5794 5790 5785 5780 5774 5767 5760 5752 5745 5735 5725 5714 5703 5691 5680 5669 5659 5648 5638 5627 5616 5604 5592 5580 5569 5558 5548 5538
5805 5806 5806 5805 5806 5806 5807 5809 5808 5808 5807 5804 5800 5800 5798 5794 5790 5786 5781 5775 5769 5762 5754 5746 5738 5729 5718 5708 5695 5684 5673 5663 5653 5642 5631 5620 5608 5596 5584 5573 5562 5551 5542 5533
5802 5803 5803 5803 5804 5805 5806 5806 5805 5805 5804 5801 5798 5795 5793 5790 5787 5782 5777 5771 5764 5757 5749 5741 5732 5722 5711 5699 5688 5677 5668 5658 5647 5636 5624 5612 5599 5587 5576 5566 5555 5546 5538 5529
5799 5800 5801 5802 5803 5804 5804 5803 5803 5802 5800 5798 5795 5795 5790 5787 5783 5778 5773 5766 5760 5752 5744 5735 5725 5714 5704 5692 5682 5673 5663 5652 5641 5629 5617 5604 5591 5580 5570 5560 5551 5542 5534 5525
5796 5796 5798 5799 5800 5801 5802 5801 5800 5799 5797 5795 5792 5790 5787 5784 5779 5773 5768 5762 5755 5747 5739 5729 5719 5709 5698 5688 5678 5668 5658 5647 5635 5622 5609 5597 5585 5575 5564 5555 5547 5539 5531 5522
5792 5793 5794 5795 5798 5799 5799 5798 5797 5796 5794 5792 5790 5788 5784 5780 5776 5770 5764 5758 5751 5743 5734 5724 5713 5703 5693 5684 5675 5665 5653 5641 5629 5616 5603 5591 5580 5570 5560 5552 5545 5537 5528 5519
5788 5789 5791 5793 5795 5797 5797 5796 5795 5793 5792 5790 5788 5785 5781 5777 5775 5767 5762 5754 5746 5738 5729 5719 5709 5699 5690 5681 5671 5660 5649 5636 5624 5611 5599 5587 5576 5566 5558 5551 5543 5535 5526 5517
5784 5786 5790 5792 5793 5794 5795 5794 5792 5791 5790 5788 5785 5782 5777 5772 5767 5763 5755 5748 5741 5733 5725 5714 5705 5696 5687 5678 5667 5656 5645 5632 5619 5606 5595 5584 5573 5564 5557 5550 5542 5534 5525 5516
5782 5785 5788 5790 5791 5792 5792 5791 5790 5789 5790 5785 5783 5779 5775 5770 5765 5759 5752 5745 5738 5730 5720 5710 5701 5693 5684 5674 5664 5653 5641 5628 5615 5603 5592 5582 5572 5564 5557 5550 5542 5534 5525 5516
5782 5784 5786 5787 5788 5790 5789 5789 5789 5787 5784 5782 5779 5776 5772 5767 5761 5755 5748 5741 5734 5726 5716 5707 5699 5690 5681 5671 5661 5650 5637 5624 5611 5600 5590 5580 5571 5564 5557 5550 5543 5535 5526 5518
5780 5781 5784 5786 5787 5786 5786 5786 5785 5784 5782 5779 5776 5773 5769 5764 5758 5751 5744 5738 5730 5721 5712 5703 5695 5687 5678 5669 5658 5646 5634 5621 5609 5598 5589 5580 5572 5565 5559 5552 5544 5536 5528 5520
5777 5779 5781 5783 5783 5783 5783 5783 5782 5780 5778 5776 5772 5769 5765 5760 5754 5747 5741 5734 5726 5717 5708 5700 5693 5685 5677 5667 5656 5644 5631 5618 5607 5599 5590 5580 5572 5566 5560 5553 5546 5539 5531 5524
5774 5776 5778 5779 5779 5780 5780 5779 5778 5777 5775 5772 5768 5765 5760 5755 5749 5743 5737 5730 5722 5713 5705 5698 5691 5683 5675 5665 5654 5643 5630 5617 5606 5598 5590 5581 5573 5567 5561 5555 5548 5541 5533 5525
5770 5772 5774 5776 5776 5777 5776 5776 5774 5773 5770 5767 5764 5760 5756 5750 5745 5739 5733 5726 5718 5710 5703 5696 5689 5682 5674 5664 5653 5641 5629 5616 5605 5598 5590 5581 5574 5568 5563 5557 5550 5544 5536 5529